AirNav   Everest Fuels
 
 1092 users online  

7NC2 Pine Island Airport
Corolla, North Carolina, USA

GOING TO COROLLA?


FAA INFORMATION EFFECTIVE 25 MARCH 2021

Location

FAA Identifier: 7NC2
Lat/Long: 36-15-12.5830N 075-47-18.6850W
36-15.209717N 075-47.311417W
36.2534953,-75.7885236
(estimated)
Elevation: 16 ft. / 5 m (estimated)
Variation: 09W (1985)
From city: 9 miles S of COROLLA, NC
Time zone: UTC -4 (UTC -5 during Standard Time)
Zip code: 27927

Airport Operations

Airport use: Private use. Permission required prior to landing
Activation date: 06/1987
Control tower: no
ARTCC: WASHINGTON CENTER
FSS: RALEIGH FLIGHT SERVICE STATION
Attendance: UNATNDD
Wind indicator: yes
Segmented circle: no

Airport Communications

WX AWOS-3 at ONX (14 nm NW): 119.775 (252-453-8939)
WX AWOS-3 at FFA (15 nm S): 118.075 (252-449-0698)
WX ASOS at ECG (19 nm W): 124.375 (252-338-4750)

Nearby radio navigation aids

VOR radial/distance  VOR name  Freq  Var
ECGr098/18.7ELIZABETH CITY VOR/DME112.5007W
RBXr355/20.5WRIGHT BROTHERS VOR/DME111.6008W

 
NDB name  Hdg/Dist  Freq  Var  ID
MANTEO356/20.837009WMQI -- --.- ..
WOODVILLE101/24.725410WLLW .-.. .-.. .--

Airport Services

Runway Information

Runway 17/35

Dimensions: 3450 x 55 ft. / 1052 x 17 m
Surface: asphalt
RUNWAY 17  RUNWAY 35
Traffic pattern: leftright
RY 17/35 ALL TRAFFIC REMAIN EAST OF ARPT SO AS TO AVOID WILDLIFE SANCTUARY.

Airport Ownership and Management from official FAA records

Ownership: Privately-owned
Owner: TURNPIKE PROPERTIES LLC
4400 SILAS CREEK PARKWAY, SUITE 302
WINSTON SALEM, NC 27104
Phone (336) 722-2236
Manager: ATLANTIC REALTY OF THE OUTER BANKS
4729 NORTH CROATAN HIGHWAY
KITTY HAWK 27949
Phone (252) 489-1994

Additional Remarks

MNT 122.8 FOR TRFC INVOF DARE COUNTY REGIONAL ARPT.
MNT 122.9 WHEN IN TFC PAT.
WRITTEN PERMISSION RQRD TO LND. LDG FEES FOR ALL ACFT. FOR ARPT OPNS RQMNTS, CTC ARPT MGR AT 252-489-1994 OR 919-389-3655
NO PRKG OF ACFT OR CARS.
FOR CD CTC WASHINGTON ARTCC AT 703-771-3587.

Instrument Procedures

There are no published instrument procedures at 7NC2.

Some nearby airports with instrument procedures:

KONX - Currituck County Regional Airport (14 nm NW)
KFFA - First Flight Airport (15 nm S)
KECG - Elizabeth City Coast Guard Air Station/Regional Airport (19 nm W)
KMQI - Dare County Regional Airport (21 nm S)
KCPK - Chesapeake Regional Airport (36 nm NW)
 
Loc | Ops | Rwys | IFR | FBO | Links
Com | Nav | Svcs | Stats | Notes
Area around 7NC2 (Pine Island Airport)
 
Road maps at: MapQuest Bing Google
 
Aerial photo
WARNING: Photo may not be current or correct
Aerial photo of 7NC2 (Pine Island Airport)
Do you have a better or more recent aerial photo of Pine Island Airport that you would like to share? If so, please send us your photo.

 
Sectional chart

 
Airport distance calculator
Flying to Pine Island Airport? Find the distance to fly.

From to 7NC2

Sunrise and sunset
Times for 15-Apr-2021
 Local
(UTC-4)
 Zulu
(UTC)
Morning civil twilight06:0410:04
Sunrise06:3110:31
Sunset19:3623:36
Evening civil twilight20:0200:02

Current date and time
Zulu (UTC)  15-Apr-2021 23:58:00
Local (UTC-4)  15-Apr-2021 19:58:00
 
METAR
KONX 
14nm NW 
152335Z AUTO 00000KT 10SM CLR 15/13 A2970 RMK AO2 T01540133
KFFA 
15nm S 
152335Z AUTO 13003KT 10SM -DZ OVC100 14/13 A2969 RMK AO2 T01350126
KECG 
19nm W 
152354Z 35005KT 10SM BKN085 16/12 A2971 RMK AO2 SLP059 60000 T01610122 10200 20161 53010
KMQI 
21nm S 
152335Z AUTO 00000KT 10SM SCT120 14/13 A2970 RMK AO2 T01400126
TAF
KECG 
19nm W 
152211Z 1522/1618 25005KT P6SM FEW035 OVC090 FM152300 31007KT P6SM SCT070 FM160300 33010KT P6SM SKC FM161600 29010KT P6SM SKC
NOTAMs
Click for the latest NOTAMs
NOTAMs are issued by the DoD/FAA and will open in a separate window not controlled by AirNav.

 

 
 

Would you like to see your business listed on this page?

 If your business provides an interesting product or service to pilots, flight crews, aircraft, or users of the Pine Island Airport, you should consider listing it here.  To start the listing process, click on the button below
 
Add a business
 

Other Pages about Pine Island Airport

Update a link
 
Copyright © AirNav, LLC. All rights reserved. Privacy Policy  Contact